• In Kazakhstan
  • List of Countries
  • For 7 days
  • Water Temperature
  • Satellite Maps
  • Weather Map
  • News
  • Weather Widgets
  • user-avatar
    Login

    Hourly Weather Prutz

    Today, 20 April, Saturday

    Time Temperature Precipitation Wind Pressure Humidity
    00:00 +2°C° 0 mm 2 mps 639 mmHg 73%
    01:00 +2°C° 0 mm 2 mps 639 mmHg 72%
    02:00 +2°C° 0 mm 2 mps 639 mmHg 70%
    03:00 +2°C° 0 mm 2 mps 638 mmHg 69%
    04:00 +1°C° 0 mm 2 mps 638 mmHg 68%
    05:00 +2°C° 0 mm 2 mps 639 mmHg 65%
    06:00 +4°C° 0 mm 2 mps 639 mmHg 62%
    07:00 +5°C° 0 mm 2 mps 639 mmHg 59%
    08:00 +8°C° 0 mm 1 mps 640 mmHg 53%
    09:00 +10°C° 0 mm 1 mps 640 mmHg 48%
    10:00 +12°C° 0 mm 1 mps 640 mmHg 42%
    11:00 +13°C° 0 mm 1 mps 641 mmHg 41%
    12:00 +14°C° 0 mm 1 mps 641 mmHg 39%
    13:00 +14°C° 0 mm 1 mps 641 mmHg 37%
    14:00 +14°C° 0 mm 1 mps 640 mmHg 37%
    15:00 +14°C° 0 mm 1 mps 640 mmHg 37%
    16:00 +14°C° 0 mm 1 mps 640 mmHg 37%
    17:00 +11°C° 0 mm 1 mps 639 mmHg 46%
    18:00 +9°C° 0 mm 1 mps 638 mmHg 55%
    19:00 +6°C° 0 mm 1 mps 637 mmHg 64%
    20:00 +6°C° 0 mm 1 mps 637 mmHg 62%
    21:00 +4°C° 0 mm 2 mps 637 mmHg 60%
    22:00 +3°C° 0 mm 2 mps 637 mmHg 58%
    23:00 +3°C° 0 mm 2 mps 637 mmHg 57%

    Tomorrow, 21 April, Sunday

    Time Temperature Precipitation Wind Pressure Humidity
    00:00 +3°C° 0 mm 2 mps 637 mmHg 55%
    01:00 +2°C° 0 mm 3 mps 637 mmHg 54%
    02:00 +2°C° 0 mm 2 mps 636 mmHg 55%
    03:00 +2°C° 0 mm 2 mps 636 mmHg 56%
    04:00 +2°C° 0 mm 2 mps 636 mmHg 57%
    05:00 +3°C° 0 mm 2 mps 636 mmHg 53%
    06:00 +4°C° 0 mm 2 mps 636 mmHg 50%
    07:00 +6°C° 0 mm 2 mps 636 mmHg 46%
    08:00 +8°C° 0 mm 2 mps 637 mmHg 40%
    09:00 +11°C° 0 mm 1 mps 637 mmHg 33%
    10:00 +14°C° 0 mm 1 mps 637 mmHg 27%
    11:00 +14°C° 0 mm 1 mps 637 mmHg 26%
    12:00 +15°C° 0 mm 1 mps 637 mmHg 25%
    13:00 +16°C° 0 mm 1 mps 637 mmHg 25%
    14:00 +16°C° 0 mm 1 mps 636 mmHg 26%
    15:00 +16°C° 0 mm 2 mps 636 mmHg 27%
    16:00 +15°C° 0 mm 2 mps 635 mmHg 28%
    17:00 +13°C° 0 mm 2 mps 634 mmHg 37%
    18:00 +9°C° 0 mm 2 mps 633 mmHg 45%
    19:00 +7°C° 0 mm 2 mps 632 mmHg 54%
    20:00 +6°C° 0 mm 2 mps 632 mmHg 56%
    21:00 +5°C° 0 mm 2 mps 632 mmHg 57%
    22:00 +3°C° 0 mm 3 mps 632 mmHg 58%
    23:00 +3°C° 0 mm 3 mps 632 mmHg 63%

    Day after tomorrow, 22 April, Monday

    Time Temperature Precipitation Wind Pressure Humidity
    00:00 +2°C° 0 mm 3 mps 632 mmHg 69%
    01:00 +2°C° 0 mm 3 mps 631 mmHg 74%
    02:00 +2°C° 0 mm 3 mps 631 mmHg 76%
    03:00 +2°C° 0 mm 3 mps 631 mmHg 78%
    04:00 +2°C° 0 mm 3 mps 630 mmHg 81%
    05:00 +3°C° 0 mm 3 mps 630 mmHg 72%
    06:00 +4°C° 0 mm 3 mps 630 mmHg 63%
    07:00 +5°C° 0 mm 3 mps 630 mmHg 54%
    08:00 +9°C° 0 mm 3 mps 631 mmHg 49%
    09:00 +12°C° 0 mm 2 mps 631 mmHg 43%
    10:00 +14°C° 0 mm 2 mps 631 mmHg 37%
    11:00 +15°C° 0 mm 2 mps 631 mmHg 37%
    12:00 +16°C° 0 mm 3 mps 630 mmHg 37%
    13:00 +16°C° 0 mm 3 mps 630 mmHg 38%
    14:00 +16°C° 0 mm 3 mps 629 mmHg 40%
    15:00 +14°C° 0 mm 3 mps 628 mmHg 42%
    16:00 +14°C° 0 mm 3 mps 628 mmHg 44%
    17:00 +12°C° 0 mm 3 mps 627 mmHg 51%
    18:00 +10°C° 0 mm 3 mps 626 mmHg 57%
    19:00 +8°C° 0 mm 2 mps 625 mmHg 64%
    20:00 +7°C° 0 mm 3 mps 625 mmHg 67%
    21:00 +5°C° 0 mm 3 mps 625 mmHg 70%
    22:00 +4°C° 0 mm 4 mps 624 mmHg 73%
    23:00 +4°C° 0 mm 4 mps 624 mmHg 75%

    23 April, Tuesday

    Time Temperature Precipitation Wind Pressure Humidity
    00:00 +4°C° 0 mm 3 mps 623 mmHg 77%
    01:00 +3°C° 0 mm 3 mps 623 mmHg 79%
    02:00 +3°C° 0 mm 3 mps 622 mmHg 79%
    03:00 +3°C° 0 mm 3 mps 622 mmHg 79%
    04:00 +3°C° 0 mm 3 mps 622 mmHg 79%
    05:00 +4°C° 0 mm 3 mps 622 mmHg 76%
    06:00 +5°C° 0 mm 3 mps 622 mmHg 73%
    07:00 +5°C° 0 mm 3 mps 622 mmHg 70%
    08:00 +8°C° 0.1 mm 3 mps 622 mmHg 65%
    09:00 +9°C° 0.1 mm 3 mps 623 mmHg 61%
    10:00 +12°C° 0.1 mm 2 mps 623 mmHg 56%
    11:00 +11°C° 0.2 mm 3 mps 623 mmHg 56%
    12:00 +11°C° 0.2 mm 3 mps 624 mmHg 56%
    13:00 +12°C° 0.2 mm 3 mps 624 mmHg 56%
    14:00 +12°C° 0.2 mm 3 mps 624 mmHg 55%
    15:00 +12°C° 0.2 mm 3 mps 624 mmHg 55%
    16:00 +12°C° 0.2 mm 3 mps 624 mmHg 55%
    17:00 +11°C° 0.1 mm 3 mps 624 mmHg 62%
    18:00 +9°C° 0.1 mm 2 mps 623 mmHg 69%
    19:00 +8°C° 0.1 mm 2 mps 623 mmHg 75%
    20:00 +8°C° 0 mm 2 mps 624 mmHg 78%
    21:00 +7°C° 0 mm 3 mps 624 mmHg 80%
    22:00 +7°C° 0 mm 3 mps 625 mmHg 82%
    23:00 +7°C° 0.1 mm 3 mps 625 mmHg 83%

    24 April, Wednesday

    Time Temperature Precipitation Wind Pressure Humidity
    00:00 +7°C° 0.1 mm 3 mps 626 mmHg 83%
    01:00 +7°C° 0.1 mm 2 mps 626 mmHg 84%
    02:00 +7°C° 0.2 mm 2 mps 626 mmHg 85%
    03:00 +6°C° 0.2 mm 2 mps 627 mmHg 85%
    04:00 +6°C° 0.2 mm 2 mps 627 mmHg 86%
    05:00 +7°C° 0.1 mm 2 mps 628 mmHg 83%
    06:00 +7°C° 0.1 mm 2 mps 628 mmHg 81%
    07:00 +8°C° 0.1 mm 3 mps 629 mmHg 78%
    08:00 +9°C° 0 mm 3 mps 630 mmHg 72%
    09:00 +11°C° 0 mm 3 mps 631 mmHg 65%
    10:00 +12°C° 0 mm 3 mps 631 mmHg 58%
    11:00 +13°C° 0.1 mm 3 mps 632 mmHg 56%
    12:00 +13°C° 0.1 mm 3 mps 632 mmHg 54%
    13:00 +14°C° 0.1 mm 3 mps 632 mmHg 52%
    14:00 +14°C° 0 mm 3 mps 632 mmHg 51%
    15:00 +14°C° 0 mm 3 mps 632 mmHg 50%
    16:00 +14°C° 0 mm 3 mps 632 mmHg 50%
    17:00 +13°C° 0 mm 3 mps 632 mmHg 56%
    18:00 +11°C° 0 mm 3 mps 632 mmHg 63%
    19:00 +10°C° 0 mm 3 mps 631 mmHg 69%
    20:00 +9°C° 0 mm 3 mps 631 mmHg 74%
    21:00 +7°C° 0 mm 4 mps 632 mmHg 78%
    22:00 +6°C° 0 mm 4 mps 632 mmHg 83%
    23:00 +6°C° 0 mm 4 mps 631 mmHg 84%

    25 April, Thursday

    Time Temperature Precipitation Wind Pressure Humidity
    00:00 +5°C° 0 mm 4 mps 631 mmHg 84%
    01:00 +5°C° 0 mm 4 mps 631 mmHg 85%
    02:00 +5°C° 0 mm 4 mps 631 mmHg 83%
    03:00 +5°C° 0 mm 4 mps 631 mmHg 82%
    04:00 +5°C° 0 mm 4 mps 631 mmHg 80%
    05:00 +6°C° 0 mm 4 mps 631 mmHg 77%
    06:00 +7°C° 0 mm 4 mps 631 mmHg 75%
    07:00 +7°C° 0 mm 4 mps 631 mmHg 72%
    08:00 +10°C° 0 mm 4 mps 631 mmHg 65%
    09:00 +12°C° 0 mm 4 mps 631 mmHg 59%
    10:00 +13°C° 0 mm 4 mps 631 mmHg 52%
    11:00 +14°C° 0 mm 4 mps 631 mmHg 51%
    12:00 +15°C° 0 mm 4 mps 631 mmHg 49%
    13:00 +15°C° 0 mm 4 mps 631 mmHg 48%
    14:00 +15°C° 0.1 mm 4 mps 630 mmHg 50%
    15:00 +15°C° 0.1 mm 4 mps 630 mmHg 52%
    16:00 +14°C° 0.1 mm 4 mps 630 mmHg 55%
    17:00 +13°C° 0.2 mm 3 mps 629 mmHg 62%
    18:00 +11°C° 0.2 mm 3 mps 629 mmHg 70%
    19:00 +10°C° 0.2 mm 3 mps 628 mmHg 78%
    20:00 +9°C° 0 mm 2 mps 628 mmHg 82%
    21:00 +8°C° 0 mm 2 mps 628 mmHg 86%
    22:00 +7°C° 0 mm 2 mps 628 mmHg 90%
    23:00 +6°C° 0.6 mm 2 mps 628 mmHg 91%
    Show more